When you browse on this site, cookies collect data to enhance your experience and personalize the content and advertising you see.
Visit our Privacy Policy to learn more. By continuing to use the site, you agree to this use of cookies and data.
  • In Hungary
  • List of Countries
  • For 7 days
  • Water Temperature
  • Weather Map
  • News
  • Weather Widgets
  • user-avatar
    Login

    Hourly Weather Ostevichi

    Today, 8 April, Wednesday

    Time Temperature Precipitation Wind Pressure Humidity
    00:00 +8°C° 0 mm 5 mps 755 mmHg 70%
    01:00 +7°C° 0 mm 5 mps 755 mmHg 72%
    02:00 +6°C° 0 mm 5 mps 756 mmHg 75%
    03:00 +6°C° 0 mm 5 mps 756 mmHg 74%
    04:00 +5°C° 0 mm 6 mps 756 mmHg 74%
    05:00 +5°C° 0 mm 6 mps 756 mmHg 73%
    06:00 +5°C° 0 mm 6 mps 757 mmHg 73%
    07:00 +5°C° 0 mm 6 mps 757 mmHg 72%
    08:00 +5°C° 0 mm 6 mps 758 mmHg 72%
    09:00 +7°C° 0 mm 5 mps 758 mmHg 67%
    10:00 +8°C° 0 mm 5 mps 758 mmHg 61%
    11:00 +9°C° 0 mm 5 mps 758 mmHg 56%
    12:00 +10°C° 0 mm 5 mps 758 mmHg 51%
    13:00 +12°C° 0 mm 5 mps 758 mmHg 46%
    14:00 +13°C° 0 mm 5 mps 758 mmHg 42%
    15:00 +13°C° 0 mm 4 mps 758 mmHg 42%
    16:00 +12°C° 0 mm 4 mps 757 mmHg 43%
    17:00 +12°C° 0 mm 3 mps 757 mmHg 43%
    18:00 +11°C° 0 mm 3 mps 757 mmHg 49%
    19:00 +9°C° 0 mm 2 mps 757 mmHg 55%
    20:00 +8°C° 0 mm 2 mps 757 mmHg 60%
    21:00 +7°C° 0 mm 2 mps 756 mmHg 62%
    22:00 +6°C° 0 mm 2 mps 756 mmHg 64%
    23:00 +6°C° 0 mm 2 mps 756 mmHg 66%

    Tomorrow, 9 April, Thursday

    Time Temperature Precipitation Wind Pressure Humidity
    00:00 +5°C° 0 mm 2 mps 755 mmHg 68%
    01:00 +5°C° 0 mm 2 mps 754 mmHg 71%
    02:00 +4°C° 0 mm 3 mps 754 mmHg 74%
    03:00 +4°C° 0 mm 3 mps 753 mmHg 73%
    04:00 +4°C° 0 mm 3 mps 753 mmHg 72%
    05:00 +4°C° 0 mm 4 mps 752 mmHg 72%
    06:00 +5°C° 0 mm 4 mps 751 mmHg 69%
    07:00 +6°C° 0 mm 5 mps 751 mmHg 66%
    08:00 +7°C° 0 mm 6 mps 750 mmHg 63%
    09:00 +8°C° 0 mm 5 mps 750 mmHg 60%
    10:00 +10°C° 0 mm 5 mps 749 mmHg 57%
    11:00 +12°C° 0 mm 5 mps 749 mmHg 54%
    12:00 +10°C° 0.3 mm 5 mps 748 mmHg 61%
    13:00 +9°C° 0.3 mm 5 mps 747 mmHg 69%
    14:00 +10°C° 0.3 mm 4 mps 747 mmHg 76%
    15:00 +10°C° 0.6 mm 4 mps 746 mmHg 79%
    16:00 +8°C° 0.6 mm 4 mps 746 mmHg 82%
    17:00 +8°C° 0.6 mm 4 mps 746 mmHg 85%
    18:00 +7°C° 0.1 mm 4 mps 746 mmHg 86%
    19:00 +7°C° 0.1 mm 4 mps 746 mmHg 87%
    20:00 +6°C° 0.1 mm 5 mps 746 mmHg 88%
    21:00 +5°C° 0 mm 5 mps 747 mmHg 85%
    22:00 +3°C° 0 mm 5 mps 747 mmHg 82%
    23:00 +2°C° 0 mm 5 mps 748 mmHg 78%

    Day after tomorrow, 10 April, Friday

    Time Temperature Precipitation Wind Pressure Humidity
    00:00 +1°C° 0 mm 4 mps 748 mmHg 78%
    01:00 0°C° 0 mm 4 mps 748 mmHg 77%
    02:00 -1°C° 0 mm 4 mps 749 mmHg 77%
    03:00 -2°C° 0 mm 4 mps 749 mmHg 79%
    04:00 -2°C° 0 mm 4 mps 749 mmHg 81%
    05:00 -2°C° 0 mm 4 mps 750 mmHg 84%
    06:00 -1°C° 0 mm 4 mps 750 mmHg 80%
    07:00 0°C° 0 mm 4 mps 750 mmHg 77%
    08:00 +1°C° 0 mm 5 mps 751 mmHg 74%
    09:00 +2°C° 0 mm 5 mps 751 mmHg 69%
    10:00 +3°C° 0 mm 5 mps 751 mmHg 64%
    11:00 +4°C° 0 mm 6 mps 751 mmHg 59%
    12:00 +5°C° 0 mm 6 mps 751 mmHg 54%
    13:00 +7°C° 0 mm 6 mps 752 mmHg 48%
    14:00 +7°C° 0 mm 6 mps 752 mmHg 43%
    15:00 +7°C° 0 mm 6 mps 752 mmHg 43%
    16:00 +7°C° 0 mm 6 mps 752 mmHg 42%
    17:00 +7°C° 0 mm 6 mps 752 mmHg 42%
    18:00 +4°C° 0 mm 6 mps 752 mmHg 45%
    19:00 +3°C° 0 mm 5 mps 752 mmHg 48%
    20:00 +1°C° 0 mm 4 mps 753 mmHg 51%
    21:00 +1°C° 0 mm 4 mps 753 mmHg 54%
    22:00 0°C° 0 mm 4 mps 753 mmHg 56%
    23:00 -1°C° 0 mm 4 mps 753 mmHg 59%

    11 April, Saturday

    Time Temperature Precipitation Wind Pressure Humidity
    00:00 -1°C° 0 mm 4 mps 754 mmHg 62%
    01:00 -2°C° 0 mm 4 mps 754 mmHg 64%
    02:00 -3°C° 0 mm 4 mps 754 mmHg 67%
    03:00 -3°C° 0 mm 4 mps 754 mmHg 68%
    04:00 -3°C° 0 mm 4 mps 755 mmHg 70%
    05:00 -3°C° 0 mm 4 mps 755 mmHg 71%
    06:00 -2°C° 0 mm 4 mps 756 mmHg 65%
    07:00 -1°C° 0 mm 5 mps 756 mmHg 60%
    08:00 0°C° 0 mm 5 mps 756 mmHg 54%
    09:00 +1°C° 0 mm 5 mps 756 mmHg 49%
    10:00 +2°C° 0 mm 5 mps 757 mmHg 44%
    11:00 +3°C° 0 mm 5 mps 757 mmHg 40%
    12:00 +3°C° 0 mm 5 mps 757 mmHg 38%
    13:00 +5°C° 0 mm 5 mps 757 mmHg 36%
    14:00 +5°C° 0 mm 5 mps 757 mmHg 34%
    15:00 +5°C° 0 mm 4 mps 757 mmHg 35%
    16:00 +5°C° 0 mm 4 mps 757 mmHg 37%
    17:00 +5°C° 0 mm 4 mps 756 mmHg 38%
    18:00 +4°C° 0 mm 3 mps 757 mmHg 46%
    19:00 +4°C° 0 mm 2 mps 757 mmHg 54%
    20:00 +3°C° 0 mm 1 mps 757 mmHg 62%
    21:00 +2°C° 0 mm 2 mps 757 mmHg 66%
    22:00 +1°C° 0 mm 2 mps 757 mmHg 70%
    23:00 +1°C° 0 mm 2 mps 757 mmHg 75%

    12 April, Sunday

    Time Temperature Precipitation Wind Pressure Humidity
    00:00 +1°C° 0 mm 2 mps 756 mmHg 76%
    01:00 -1°C° 0 mm 2 mps 756 mmHg 77%
    02:00 -1°C° 0 mm 2 mps 756 mmHg 77%
    03:00 -1°C° 0 mm 3 mps 755 mmHg 75%
    04:00 -1°C° 0 mm 4 mps 755 mmHg 72%
    05:00 -1°C° 0 mm 4 mps 754 mmHg 69%
    06:00 0°C° 0 mm 5 mps 754 mmHg 64%
    07:00 +1°C° 0 mm 6 mps 753 mmHg 59%
    08:00 +3°C° 0 mm 7 mps 753 mmHg 53%
    09:00 +3°C° 0 mm 7 mps 752 mmHg 56%
    10:00 +4°C° 0 mm 7 mps 751 mmHg 58%
    11:00 +5°C° 0 mm 8 mps 751 mmHg 61%
    12:00 +6°C° 0 mm 7 mps 750 mmHg 60%
    13:00 +8°C° 0 mm 7 mps 750 mmHg 59%
    14:00 +8°C° 0 mm 7 mps 749 mmHg 59%
    15:00 +8°C° 0.3 mm 6 mps 749 mmHg 64%
    16:00 +7°C° 0.3 mm 5 mps 748 mmHg 70%
    17:00 +7°C° 0.3 mm 4 mps 747 mmHg 75%
    18:00 +7°C° 0.1 mm 4 mps 747 mmHg 75%
    19:00 +7°C° 0.1 mm 4 mps 747 mmHg 74%
    20:00 +8°C° 0.1 mm 4 mps 746 mmHg 74%
    21:00 +7°C° 0.1 mm 4 mps 746 mmHg 75%
    22:00 +7°C° 0.1 mm 4 mps 745 mmHg 76%
    23:00 +7°C° 0.1 mm 5 mps 745 mmHg 77%

    13 April, Monday

    Time Temperature Precipitation Wind Pressure Humidity
    00:00 +7°C° 0.1 mm 5 mps 745 mmHg 77%
    01:00 +7°C° 0.1 mm 5 mps 744 mmHg 77%
    02:00 +7°C° 0.1 mm 5 mps 744 mmHg 77%
    03:00 +7°C° 0.1 mm 4 mps 744 mmHg 78%
    04:00 +6°C° 0.1 mm 4 mps 743 mmHg 78%
    05:00 +6°C° 0.1 mm 4 mps 743 mmHg 78%
    06:00 +7°C° 0.1 mm 4 mps 743 mmHg 75%
    07:00 +8°C° 0.1 mm 5 mps 742 mmHg 73%
    08:00 +8°C° 0.1 mm 5 mps 742 mmHg 70%
    09:00 +10°C° 0 mm 5 mps 741 mmHg 64%
    10:00 +13°C° 0 mm 6 mps 741 mmHg 59%
    11:00 +15°C° 0 mm 6 mps 740 mmHg 53%
    12:00 +16°C° 0 mm 7 mps 740 mmHg 51%
    13:00 +17°C° 0 mm 7 mps 739 mmHg 48%
    14:00 +17°C° 0 mm 7 mps 739 mmHg 46%
    15:00 +17°C° 0.1 mm 7 mps 738 mmHg 51%
    16:00 +16°C° 0.1 mm 6 mps 738 mmHg 56%
    17:00 +15°C° 0.1 mm 6 mps 737 mmHg 61%
    18:00 +14°C° 0.5 mm 6 mps 737 mmHg 66%
    19:00 +13°C° 0.5 mm 5 mps 736 mmHg 72%
    20:00 +12°C° 0.5 mm 5 mps 736 mmHg 78%
    21:00 +12°C° 0.2 mm 5 mps 735 mmHg 78%
    22:00 +12°C° 0.2 mm 5 mps 735 mmHg 79%
    23:00 +10°C° 0.2 mm 6 mps 735 mmHg 79%
    Show more